EW6246 Weather Reports


Display with metric or nautical units.
time (UTC)temp
F
wind
direction
speed
MPH
gust
MPH
rain 1hr
in
rain 24hr
in
rain mn
in
humidity
%
barometer
mb
20260506062143 63 302 0.0 0.0 0.00 0.00 0.00 95 1018.7
20260506061639 64 306 0.0 0.0 0.00 0.00 0.00 95 1018.7
20260506061137 63 320 1.0 1.0 0.00 0.00 0.00 95 1018.9
20260506060635 64 300 0.0 0.0 0.00 0.00 0.00 95 1019.1
20260506060131 64 307 0.0 0.0 0.00 0.00 0.00 94 1019.0
20260506051103 64 300 0.0 1.0 0.00 0.00 0.00 95 1019.3
20260506050602 64 302 0.0 0.0 0.00 0.00 0.00 95 1019.3
20260506045052 64 306 0.0 1.0 0.00 0.00 0.00 95 1019.5
20260506044550 64 302 0.0 0.0 0.00 0.00 0.00 94 1019.7
20260506044046 65 297 0.0 0.0 0.00 0.00 0.00 94 1019.6
20260506043543 65 304 0.0 0.0 0.00 0.00 0.00 94 1019.5
20260506043042 65 326 1.0 1.0 0.00 0.00 0.00 94 1019.4
20260506042541 65 300 0.0 0.0 0.00 0.00 0.00 94 1019.6
20260506042038 64 309 0.0 0.0 0.00 0.00 0.00 94 1019.5
20260506041537 64 302 0.0 0.0 0.00 0.00 0.00 94 1019.4
20260506041033 65 300 0.0 1.0 0.00 0.00 0.00 94 1019.6
20260506040531 65 306 0.0 1.0 0.00 0.00 0.00 94 1019.6
20260506040026 65 304 0.0 1.0 0.00 0.00 0.00 94 1019.7
20260506035524 65 310 0.0 1.0 0.00 0.00 0.00 94 1019.7
20260506035021 65 310 1.0 1.0 0.00 0.00 0.00 94 1019.9
20260506034518 65 297 0.0 0.0 0.00 0.00 0.00 94 1020.0
20260506034015 65 311 1.0 1.0 0.00 0.00 0.00 94 1019.8
20260506033512 65 301 0.0 0.0 0.00 0.00 0.00 94 1019.8
20260506033009 65 302 0.0 0.0 0.00 0.00 0.00 94 1019.7
20260506032507 65 302 0.0 0.0 0.00 0.00 0.00 94 1019.8
20260506032003 65 299 0.0 0.0 0.00 0.00 0.00 93 1019.8
20260506031501 65 299 0.0 0.0 0.00 0.00 0.00 93 1019.8
20260506030958 66 299 0.0 0.0 0.00 0.00 0.00 93 1019.6
20260506030456 66 298 0.0 0.0 0.00 0.00 0.00 92 1019.7
20260506025952 66 306 0.0 0.0 0.00 0.00 0.00 92 1019.8
20260506025449 66 299 0.0 0.0 0.00 0.00 0.00 92 1020.0
20260506024946 66 304 0.0 0.0 0.00 0.00 0.00 92 1019.9
20260506024442 65 304 0.0 0.0 0.00 0.00 0.00 93 1019.9
20260506023938 66 307 0.0 0.0 0.00 0.00 0.00 93 1019.9
20260506023435 66 300 0.0 0.0 0.00 0.00 0.00 92 1019.9
20260506022932 66 300 0.0 0.0 0.00 0.00 0.00 92 1019.8
20260506022430 67 300 0.0 1.0 0.00 0.00 0.00 91 1020.0
20260506021928 67 302 0.0 0.0 0.00 0.00 0.00 90 1019.9
20260506021425 66 300 0.0 0.0 0.00 0.00 0.00 92 1019.9
20260506020922 66 300 0.0 0.0 0.00 0.00 0.00 92 1020.1
20260506020420 67 313 1.0 1.0 0.00 0.00 0.00 92 1019.6
20260506015916 67 314 1.0 1.0 0.00 0.00 0.00 91 1019.6
20260506015414 67 305 0.0 0.0 0.00 0.00 0.00 91 1019.7
20260506014910 67 341 1.0 1.0 0.00 0.00 0.00 92 1019.6
20260506014408 67 328 1.0 1.0 0.00 0.00 0.00 92 1019.5
20260506013904 67 304 0.0 1.0 0.00 0.00 0.00 92 1019.5
20260506013402 67 308 0.0 1.0 0.00 0.00 0.00 93 1019.9
20260506012858 67 311 1.0 1.0 0.00 0.00 0.00 92 1019.6
20260506012354 68 307 0.0 1.0 0.00 0.00 0.00 92 1019.8
20260506011852 68 302 0.0 1.0 0.00 0.00 0.00 91 1019.6
20260506011349 68 325 1.0 1.0 0.00 0.00 0.00 92 1019.4
20260506010846 68 297 0.0 1.0 0.00 0.00 0.00 92 1019.5
20260506010344 68 320 1.0 1.0 0.00 0.00 0.00 92 1019.6
20260506005841 68 304 0.0 1.0 0.00 0.00 0.00 92 1019.8
20260506005337 68 332 1.0 1.0 0.00 0.00 0.00 92 1019.6
20260506004833 68 325 0.0 0.0 0.00 0.00 0.00 93 1019.4
20260506004331 68 310 0.0 0.0 0.00 0.00 0.00 93 1019.3
20260506003827 68 308 0.0 0.0 0.00 0.00 0.00 92 1019.3
20260506003323 68 302 0.0 0.0 0.00 0.00 0.00 92 1019.3
20260506002820 69 305 0.0 1.0 0.00 0.00 0.00 92 1019.5
20260506002317 69 304 0.0 0.0 0.00 0.00 0.00 91 1019.4
20260506001812 69 304 0.0 1.0 0.00 0.00 0.00 91 1019.4
20260506001310 69 292 0.0 0.0 0.00 0.00 0.00 91 1019.2
20260506000806 70 321 1.0 1.0 0.00 0.00 0.00 90 1019.2
20260506000304 70 304 1.0 1.0 0.00 0.00 0.00 89 1019.0
20260505235801 70 289 0.0 0.0 0.00 0.00 0.00 87 1019.2
20260505235258 71 313 1.0 1.0 0.00 0.00 0.00 87 1019.2
20260505234755 71 301 0.0 0.0 0.00 0.00 0.00 86 1019.2
20260505234253 72 294 1.0 1.0 0.00 0.00 0.00 83 1019.1
20260505233749 72 278 0.0 1.0 0.00 0.00 0.00 80 1018.9
20260505233247 72 304 1.0 1.0 0.00 0.00 0.00 82 1019.0
20260505232744 72 307 1.0 1.0 0.00 0.00 0.00 84 1018.9
20260505232242 72 294 1.0 2.0 0.00 0.00 0.00 85 1018.9
20260505231738 72 78 1.0 2.0 0.00 0.00 0.00 85 1018.6
20260505231237 72 30 2.0 3.0 0.00 0.00 0.00 85 1018.6
20260505230735 73 304 2.0 2.0 0.00 0.00 0.00 86 1018.5
20260505230231 73 273 2.0 2.0 0.00 0.00 0.00 85 1018.6
20260505225728 73 317 1.0 2.0 0.00 0.00 0.00 85 1018.5
20260505225225 73 287 3.0 3.0 0.00 0.00 0.00 84 1018.5
20260505224720 73 290 1.0 2.0 0.00 0.00 0.00 84 1018.3
20260505224218 73 276 2.0 3.0 0.00 0.00 0.00 85 1018.3
20260505223716 73 273 2.0 2.0 0.00 0.00 0.00 84 1018.2
20260505223211 73 326 2.0 3.0 0.00 0.00 0.00 83 1018.3
20260505222708 74 314 3.0 5.0 0.00 0.00 0.00 84 1018.2
20260505222203 74 276 1.0 1.0 0.00 0.00 0.00 84 1018.3
20260505221701 74 259 4.0 7.0 0.00 0.00 0.00 84 1018.4
20260505221158 75 294 2.0 3.0 0.00 0.00 0.00 83 1018.2
20260505220655 75 241 2.0 6.0 0.00 0.00 0.00 82 1018.1
20260505220152 75 302 2.0 2.0 0.00 0.00 0.00 83 1018.3
20260505215650 75 258 4.0 6.0 0.00 0.00 0.00 82 1018.1
20260505215148 76 291 1.0 1.0 0.00 0.00 0.00 83 1018.1
20260505214646 76 299 2.0 3.0 0.00 0.00 0.00 82 1018.1
20260505214143 77 257 1.0 1.0 0.00 0.00 0.00 80 1018.1
20260505213640 77 278 1.0 2.0 0.00 0.00 0.00 80 1018.0
20260505213137 78 234 1.0 2.0 0.00 0.00 0.00 79 1018.1
20260505212632 77 260 2.0 3.0 0.00 0.00 0.00 80 1018.2
20260505212130 78 297 4.0 5.0 0.00 0.00 0.00 79 1018.1
20260505211627 78 301 3.0 3.0 0.00 0.00 0.00 79 1018.1
20260505211124 78 256 5.0 7.0 0.00 0.00 0.00 77 1017.9
20260505210621 78 267 2.0 3.0 0.00 0.00 0.00 79 1017.8
20260505210118 79 287 1.0 2.0 0.00 0.00 0.00 77 1017.7
20260505205615 79 286 1.0 2.0 0.00 0.00 0.00 77 1017.9
20260505205113 79 274 2.0 5.0 0.00 0.00 0.00 77 1017.8
20260505204610 79 322 4.0 5.0 0.00 0.00 0.00 77 1017.8
20260505204107 79 293 3.0 5.0 0.00 0.00 0.00 78 1017.7
20260505203604 79 274 2.0 2.0 0.00 0.00 0.00 77 1017.6
20260505203101 79 275 2.0 2.0 0.00 0.00 0.00 78 1017.9
20260505202556 79 258 4.0 6.0 0.00 0.00 0.00 78 1018.0
20260505202053 79 299 3.0 6.0 0.00 0.00 0.00 77 1017.8
20260505201550 79 293 3.0 3.0 0.00 0.00 0.00 77 1017.7
20260505201048 79 288 3.0 5.0 0.00 0.00 0.00 78 1017.9
20260505200545 80 269 6.0 9.0 0.00 0.00 0.00 78 1017.8
20260505200042 80 283 3.0 3.0 0.00 0.00 0.00 77 1017.8
20260505195538 80 298 4.0 8.0 0.00 0.00 0.00 77 1018.0
20260505195036 81 314 4.0 5.0 0.00 0.00 0.00 76 1017.9
20260505194533 80 223 1.0 2.0 0.00 0.00 0.00 77 1017.9
20260505194028 81 258 3.0 5.0 0.00 0.00 0.00 77 1018.0
20260505193525 81 61 3.0 3.0 0.00 0.00 0.00 75 1018.4
20260505193023 82 76 2.0 2.0 0.00 0.00 0.00 77 1018.0
20260505192521 82 30 0.0 1.0 0.00 0.00 0.00 76 1018.1
20260505192018 81 71 2.0 2.0 0.00 0.00 0.00 78 1018.4
20260505191516 82 178 3.0 5.0 0.00 0.00 0.00 74 1018.2
20260505191014 82 285 1.0 1.0 0.00 0.00 0.00 73 1018.3
20260505190508 82 43 2.0 3.0 0.00 0.00 0.00 74 1018.2
20260505190005 82 280 2.0 3.0 0.00 0.00 0.00 75 1018.4
20260505185502 80 341 3.0 5.0 0.00 0.00 0.00 76 1018.5
20260505184958 80 16 2.0 2.0 0.00 0.00 0.00 78 1018.5
20260505184455 78 302 2.0 2.0 0.00 0.00 0.00 81 1018.5
20260505183951 80 309 2.0 2.0 0.00 0.00 0.00 78 1018.6
20260505183449 82 19 3.0 3.0 0.00 0.00 0.00 75 1018.7
20260505182945 81 307 0.0 1.0 0.00 0.00 0.00 76 1018.4
20260505182442 78 294 1.0 1.0 0.00 0.00 0.00 80 1018.9
20260505181938 79 250 3.0 5.0 0.00 0.00 0.00 78 1018.9
20260505181436 82 34 5.0 6.0 0.00 0.00 0.00 75 1018.5
20260505180933 82 24 1.0 1.0 0.00 0.00 0.00 74 1019.0
20260505180429 81 271 2.0 2.0 0.00 0.00 0.00 74 1018.7
20260505175926 80 287 3.0 3.0 0.00 0.00 0.00 78 1019.0
20260505175422 80 275 1.0 1.0 0.00 0.00 0.00 79 1019.2
20260505174918 78 313 2.0 3.0 0.00 0.00 0.00 81 1019.2
20260505174416 77 270 1.0 1.0 0.00 0.00 0.00 85 1019.3
20260505173912 77 277 1.0 2.0 0.00 0.00 0.00 85 1019.5
20260505173408 79 287 1.0 2.0 0.00 0.00 0.00 80 1019.4
20260505172905 81 358 2.0 2.0 0.00 0.00 0.00 79 1019.6
20260505172403 80 330 1.0 1.0 0.00 0.00 0.00 78 1019.5
20260505171903 79 311 1.0 1.0 0.00 0.00 0.00 81 1019.6
20260505171400 78 271 1.0 2.0 0.00 0.00 0.00 83 1019.7
20260505170856 81 306 1.0 1.0 0.00 0.00 0.00 77 1019.6
20260505170354 79 264 1.0 2.0 0.00 0.00 0.00 80 1019.7
20260505165848 78 258 1.0 2.0 0.00 0.00 0.00 81 1019.4
20260505165344 77 258 0.0 0.0 0.00 0.00 0.00 83 1019.6
20260505164840 78 258 1.0 1.0 0.00 0.00 0.00 82 1019.8
20260505164337 78 258 2.0 3.0 0.00 0.00 0.00 81 1019.6
20260505163835 82 77 2.0 5.0 0.00 0.00 0.00 76 1019.6
20260505163334 81 50 1.0 2.0 0.00 0.00 0.00 75 1019.9
20260505162832 80 313 1.0 1.0 0.00 0.00 0.00 76 1019.9
20260505162328 80 278 3.0 5.0 0.00 0.00 0.00 74 1019.8
20260505161825 78 258 1.0 2.0 0.00 0.00 0.00 82 1019.7
20260505161322 79 300 2.0 2.0 0.00 0.00 0.00 80 1019.7
20260505160819 78 258 1.0 1.0 0.00 0.00 0.00 83 1019.8
20260505160317 79 266 3.0 5.0 0.00 0.00 0.00 80 1019.6
20260505153256 80 257 3.0 3.0 0.00 0.00 0.00 72 1019.4
20260505152753 80 302 0.0 1.0 0.00 0.00 0.00 73 1019.5
20260505152249 79 258 1.0 2.0 0.00 0.00 0.00 76 1019.8
20260505151744 80 340 1.0 2.0 0.00 0.00 0.00 75 1019.5
20260505151241 81 258 4.0 5.0 0.00 0.00 0.00 71 1019.4
20260505150738 81 237 5.0 6.0 0.00 0.00 0.00 72 1019.3
20260505150235 80 225 3.0 3.0 0.00 0.00 0.00 75 1019.4
20260505140200 78 338 2.0 2.0 0.00 0.00 0.00 75 1019.6
20260505130124 75 230 2.0 3.0 0.00 0.00 0.00 78 1018.9
20260505124613 75 336 2.0 2.0 0.00 0.00 0.00 79 1019.0
20260505124110 75 276 1.0 2.0 0.00 0.00 0.00 80 1019.1
20260505123606 74 340 2.0 2.0 0.00 0.00 0.00 83 1018.7
20260505123103 74 289 1.0 1.0 0.00 0.00 0.00 81 1019.0
20260505122559 73 302 0.0 0.0 0.00 0.00 0.00 86 1018.9
20260505122056 73 284 0.0 0.0 0.00 0.00 0.00 87 1018.7
20260505121553 72 267 0.0 0.0 0.00 0.00 0.00 88 1018.6
20260505121050 72 251 1.0 1.0 0.00 0.00 0.00 88 1018.7
20260505120546 72 289 0.0 1.0 0.00 0.00 0.00 89 1018.6
20260505120042 72 222 1.0 1.0 0.00 0.00 0.00 88 1018.6
20260505115536 72 297 0.0 0.0 0.00 0.00 0.00 88 1018.6
20260505115034 72 294 0.0 0.0 0.00 0.00 0.00 88 1018.6
20260505114531 71 304 0.0 0.0 0.00 0.00 0.00 90 1018.5
20260505114027 72 273 1.0 1.0 0.00 0.00 0.00 88 1018.5
20260505113524 71 304 0.0 0.0 0.00 0.00 0.00 89 1018.5
20260505113020 70 304 0.0 0.0 0.00 0.00 0.00 90 1018.6
20260505112516 70 306 0.0 0.0 0.00 0.00 0.00 90 1018.4
20260505112014 70 306 0.0 0.0 0.00 0.00 0.00 91 1018.4
20260505111508 69 291 0.0 0.0 0.00 0.00 0.00 90 1018.7
20260505111004 69 301 0.0 0.0 0.00 0.00 0.00 91 1018.7
20260505110501 69 306 0.0 0.0 0.00 0.00 0.00 92 1018.5
20260505101927 66 309 0.0 0.0 0.00 0.00 0.00 95 1017.9
20260505101426 66 332 1.0 1.0 0.00 0.00 0.00 95 1017.8
20260505100922 66 311 1.0 1.0 0.00 0.00 0.00 96 1017.6
20260505100420 66 307 0.0 0.0 0.00 0.00 0.00 96 1017.4
20260505095915 65 314 0.0 0.0 0.00 0.00 0.00 97 1017.7
20260505095413 65 310 0.0 0.0 0.00 0.00 0.00 97 1017.7
20260505094908 66 310 0.0 1.0 0.00 0.00 0.00 97 1017.6
20260505094406 65 267 1.0 1.0 0.00 0.00 0.00 97 1017.6
20260505093901 65 310 0.0 0.0 0.00 0.00 0.00 97 1017.6
20260505093359 65 300 0.0 0.0 0.00 0.00 0.00 97 1017.7
20260505092856 66 293 0.0 0.0 0.00 0.00 0.00 97 1017.5
20260505092354 65 299 0.0 0.0 0.00 0.00 0.00 97 1017.4
20260505091851 65 300 0.0 0.0 0.00 0.00 0.00 97 1017.6
20260505091349 66 308 0.0 0.0 0.00 0.00 0.00 97 1017.3
20260505090847 66 302 0.0 0.0 0.00 0.00 0.00 97 1017.6
20260505090345 66 300 0.0 0.0 0.00 0.00 0.00 97 1017.7
20260505085841 66 294 0.0 0.0 0.00 0.00 0.00 97 1017.7
20260505085339 66 308 0.0 0.0 0.00 0.00 0.00 97 1017.4
20260505084837 66 308 0.0 0.0 0.00 0.00 0.00 97 1017.7
20260505084335 66 308 0.0 0.0 0.00 0.00 0.00 97 1017.6
20260505083832 66 308 0.0 0.0 0.00 0.00 0.00 97 1017.7
20260505083330 66 308 0.0 1.0 0.00 0.00 0.00 97 1017.5
20260505082826 66 309 1.0 1.0 0.00 0.00 0.00 97 1017.7
20260505082322 66 308 0.0 0.0 0.00 0.00 0.00 97 1017.5
20260505081819 66 308 0.0 0.0 0.00 0.00 0.00 97 1017.6
20260505081316 66 308 1.0 1.0 0.00 0.00 0.00 97 1017.5
20260505080812 66 290 0.0 0.0 0.00 0.00 0.00 96 1017.8
20260505080308 66 319 0.0 1.0 0.00 0.00 0.00 96 1017.7
20260505075804 66 300 0.0 1.0 0.00 0.00 0.00 96 1017.6
20260505075304 66 308 0.0 0.0 0.00 0.00 0.00 96 1017.6
20260505074758 67 311 0.0 0.0 0.00 0.00 0.00 96 1017.3
20260505074255 66 299 0.0 0.0 0.00 0.00 0.00 96 1017.4
20260505073753 67 292 0.0 0.0 0.00 0.00 0.00 95 1017.2
20260505073251 67 308 0.0 0.0 0.00 0.00 0.00 95 1017.3
20260505072747 67 272 1.0 1.0 0.00 0.00 0.00 95 1017.5
20260505072243 67 293 0.0 1.0 0.00 0.00 0.00 96 1017.4
20260505071739 67 321 1.0 1.0 0.00 0.00 0.00 96 1017.3
20260505071236 67 291 0.0 0.0 0.00 0.00 0.00 96 1017.4
20260505070734 67 305 0.0 0.0 0.00 0.00 0.00 96 1017.3
20260505070230 67 295 0.0 0.0 0.00 0.00 0.00 96 1017.3